Location: Burleson Fire Department Station 2
(32.5391°N, 97.3075°W)
Time: 05:45:26
(UTC+00:00)

Oscar 19 - Visible Passes

Search period start: 19 January 2026 00:00
Search period end: 29 January 2026 00:00
Orbit: 771 x 786 km, 98.9° (Epoch: 18 January)

Date Brightness Start Highest point End Pass type
(mag) Time Alt. Az. Time Alt. Az. Time Alt. Az.
19 Jan 10.6 00:24:08 10° SSE 00:29:14 72° ENE 00:34:24 10° N visible
19 Jan 12.6 12:40:04 10° NNE 12:44:46 34° E 12:49:25 10° SSE visible
20 Jan 13.0 01:31:31 10° SSW 01:35:34 23° W 01:39:40 10° NW visible
20 Jan 13.7 12:08:34 10° ENE 12:11:34 15° E 12:14:34 10° SE visible
21 Jan 11.5 00:57:29 10° S 01:02:28 52° W 01:07:30 10° NNW visible
22 Jan 10.6 00:24:23 10° SSE 00:29:30 71° ENE 00:34:39 10° N visible
22 Jan 12.6 12:40:20 10° NE 12:45:01 34° E 12:49:39 10° SSE visible
23 Jan 13.0 01:31:46 10° SSW 01:35:50 24° W 01:39:57 10° NW visible
23 Jan 13.8 12:08:51 10° ENE 12:11:50 15° E 12:14:47 10° SE visible
24 Jan 11.5 00:57:43 10° S 01:02:43 52° W 01:07:46 10° NNW visible
25 Jan 10.6 00:24:39 10° SSE 00:29:46 71° ENE 00:34:55 10° N visible
25 Jan 14.1 02:09:01 10° W 02:09:21 10° W 02:09:42 10° W visible
25 Jan 12.6 12:40:37 10° NE 12:45:17 34° E 12:49:54 10° SSE visible
26 Jan 13.0 01:32:00 10° SSW 01:36:05 24° W 01:40:13 10° NW visible
26 Jan 13.8 12:09:08 10° ENE 12:12:05 15° E 12:15:01 10° SE visible
27 Jan 11.5 00:57:58 10° S 01:02:59 53° W 01:08:03 10° NNW visible
28 Jan 10.6 00:24:54 10° SSE 00:30:01 70° ENE 00:35:11 10° N visible
28 Jan 14.1 02:09:02 10° W 02:09:36 10° W 02:10:10 10° W visible
28 Jan 12.6 12:40:53 10° NE 12:45:32 33° E 12:50:08 10° SSE visible
